This is the latest recevied weather packets stored in our database for station/object K4GDX. If no packets are shown the sender has not sent any weather packets the latest 10 day(s).
| Time | Temp. | Humidity | Pressure | Rain* | Wind** | Luminosity | Snow |
|---|---|---|---|---|---|---|---|
| 1777683173 | 22.78° C | 82% | 1010.6 hPa | 0 mm | - | 0 W/m² | - |
| 1777682863 | 22.78° C | 82% | 1010.7 hPa | 0 mm | - | 0 W/m² | - |
| 1777682565 | 23.33° C | 81% | 1010.9 hPa | 0 mm | - | 0 W/m² | - |
| 1777682264 | 23.33° C | 81% | 1010.8 hPa | 0 mm | - | 0 W/m² | - |
| 1777681964 | 23.33° C | 81% | 1010.7 hPa | 0 mm | - | 0 W/m² | - |
| 1777681664 | 23.33° C | 80% | 1010.5 hPa | 0 mm | - | 0 W/m² | - |
| 1777681365 | 23.33° C | 80% | 1010.3 hPa | 0 mm | - | 0 W/m² | - |
| 1777681065 | 23.89° C | 80% | 1010.2 hPa | 0 mm | - | 0 W/m² | - |
| 1777680763 | 23.89° C | 80% | 1010.1 hPa | 0 mm | - | 0 W/m² | - |
| 1777680465 | 23.89° C | 79% | 1009.9 hPa | 0 mm | - | 0 W/m² | - |
| 1777680165 | 23.89° C | 81% | 1009.9 hPa | 0 mm | - | 0 W/m² | - |
| 1777679862 | 24.44° C | 80% | 1009.8 hPa | 0 mm | - | 0 W/m² | - |
| 1777679562 | 24.44° C | 79% | 1009.6 hPa | 0 mm | - | 9 W/m² | - |
| 1777679261 | 24.44° C | 78% | 1009.5 hPa | 0 mm | - | 16 W/m² | - |
| 1777678961 | 24.44° C | 77% | 1009.4 hPa | 0 mm | - | 23 W/m² | - |
| 1777678661 | 24.44° C | 76% | 1009.3 hPa | 0 mm | - | 30 W/m² | - |
| 1777678364 | 24.44° C | 76% | 1009.4 hPa | 0 mm | - | 37 W/m² | - |
| 1777678061 | 24.44° C | 76% | 1009.4 hPa | 0 mm | - | 42 W/m² | - |
| 1777677760 | 24.44° C | 76% | 1009.4 hPa | 0 mm | - | 47 W/m² | - |
| 1777677460 | 24.44° C | 76% | 1009.3 hPa | 0 mm | - | 35 W/m² | - |
| 1777677157 | 24.44° C | 76% | 1009.3 hPa | 0 mm | - | 23 W/m² | - |
| 1777676855 | 25° C | 76% | 1009.1 hPa | 0 mm | - | 21 W/m² | - |
| 1777676554 | 25° C | 76% | 1009.1 hPa | 0 mm | - | 21 W/m² | - |
| 1777676255 | 25° C | 76% | 1009.1 hPa | 0 mm | - | 26 W/m² | - |
| 1777675953 | 25° C | 77% | 1009 hPa | 0 mm | - | 42 W/m² | - |
* Rain latest hour (hover to see other rain measurements)
** Current wind speed in m/s (hover to see current wind gust speed)